| time (UTC) | temp F | wind direction | speed MPH | gust MPH | rain 1hr in | rain 24hr in | rain mn in | humidity % | barometer mb |
| 20260504184622 | 78 | 44 | 3.0 | 9.0 | 0.00 | 0.00 | 0.00 | 49 | 1015.7 |
| 20260504184120 | 78 | 40 | 3.0 | 7.0 | 0.00 | 0.00 | 0.00 | 49 | 1015.7 |
| 20260504183619 | 78 | 292 | 3.0 | 11.0 | 0.00 | 0.00 | 0.00 | 48 | 1015.7 |
| 20260504183343 | 77 | 98 | 4.0 | 11.0 | 0.00 | 0.00 | 0.00 | 49 | 1015.8 |
| 20260504182617 | 77 | 48 | 4.0 | 8.0 | 0.00 | 0.00 | 0.00 | 49 | 1015.8 |
| 20260504182117 | 77 | 48 | 4.0 | 8.0 | 0.00 | 0.00 | 0.00 | 50 | 1015.8 |
| 20260504181616 | 77 | 49 | 3.0 | 7.0 | 0.00 | 0.00 | 0.00 | 49 | 1015.9 |
| 20260504181115 | 77 | 124 | 3.0 | 7.0 | 0.00 | 0.00 | 0.00 | 48 | 1016.0 |
| 20260504180613 | 77 | 48 | 4.0 | 9.0 | 0.00 | 0.00 | 0.00 | 47 | 1016.1 |
| 20260504180329 | 76 | 47 | 4.0 | 9.0 | 0.00 | 0.00 | 0.00 | 50 | 1016.3 |
| 20260504175611 | 77 | 7 | 4.0 | 8.0 | 0.00 | 0.00 | 0.00 | 49 | 1016.3 |
| 20260504175108 | 76 | 42 | 4.0 | 9.0 | 0.00 | 0.00 | 0.00 | 49 | 1016.2 |
| 20260504174830 | 76 | 42 | 4.0 | 9.0 | 0.00 | 0.00 | 0.00 | 50 | 1016.2 |
| 20260504174109 | 76 | 43 | 4.0 | 9.0 | 0.00 | 0.00 | 0.00 | 52 | 1016.3 |
| 20260504173607 | 76 | 43 | 4.0 | 10.0 | 0.00 | 0.00 | 0.00 | 50 | 1016.3 |
| 20260504173326 | 76 | 43 | 4.0 | 10.0 | 0.00 | 0.00 | 0.00 | 49 | 1016.5 |
| 20260504172609 | 76 | 43 | 4.0 | 9.0 | 0.00 | 0.00 | 0.00 | 49 | 1016.5 |
| 20260504172108 | 76 | 247 | 4.0 | 9.0 | 0.00 | 0.00 | 0.00 | 49 | 1016.5 |
| 20260504171609 | 76 | 306 | 4.0 | 10.0 | 0.00 | 0.00 | 0.00 | 48 | 1016.7 |
| 20260504171327 | 76 | 40 | 4.0 | 10.0 | 0.00 | 0.00 | 0.00 | 50 | 1016.7 |
| 20260504170609 | 76 | 262 | 4.0 | 9.0 | 0.00 | 0.00 | 0.00 | 49 | 1016.6 |
| 20260504170108 | 76 | 317 | 4.0 | 9.0 | 0.00 | 0.00 | 0.00 | 51 | 1016.7 |
| 20260504160105 | 74 | 273 | 5.0 | 12.0 | 0.00 | 0.00 | 0.00 | 50 | 1017.3 |
| 20260504151102 | 74 | 45 | 3.0 | 7.0 | 0.00 | 0.00 | 0.00 | 57 | 1017.5 |
| 20260504150557 | 73 | 45 | 3.0 | 7.0 | 0.00 | 0.00 | 0.00 | 57 | 1017.5 |
| 20260504140951 | 70 | 45 | 1.0 | 3.0 | 0.00 | 0.00 | 0.00 | 73 | 1017.3 |
| 20260504140703 | 70 | 45 | 1.0 | 3.0 | 0.00 | 0.00 | 0.00 | 73 | 1017.5 |
| 20260504130332 | 65 | 45 | 0.0 | 0.0 | 0.00 | 0.00 | 0.00 | 85 | 1017.4 |
| 20260504120221 | 53 | 45 | 0.0 | 0.0 | 0.00 | 0.00 | 0.00 | 98 | 1017.0 |
| 20260504110614 | 54 | 45 | 0.0 | 1.0 | 0.00 | 0.00 | 0.00 | 98 | 1016.5 |
| 20260504110109 | 53 | 45 | 0.0 | 0.0 | 0.00 | 0.00 | 0.00 | 97 | 1016.4 |
| 20260504100504 | 55 | 45 | 0.0 | 0.0 | 0.00 | 0.00 | 0.00 | 95 | 1016.5 |
| 20260504081914 | 57 | 45 | 0.0 | 1.0 | 0.00 | 0.00 | 0.00 | 89 | 1016.9 |
| 20260504081414 | 57 | 45 | 0.0 | 0.0 | 0.00 | 0.00 | 0.00 | 90 | 1016.9 |
| 20260504080911 | 57 | 45 | 0.0 | 0.0 | 0.00 | 0.00 | 0.00 | 90 | 1017.0 |
| 20260504080411 | 57 | 45 | 0.0 | 0.0 | 0.00 | 0.00 | 0.00 | 90 | 1016.8 |
| 20260504070406 | 60 | 45 | 0.0 | 1.0 | 0.00 | 0.00 | 0.00 | 84 | 1017.2 |
| 20260504050716 | 62 | 45 | 0.0 | 1.0 | 0.00 | 0.00 | 0.00 | 82 | 1018.1 |
| 20260504050210 | 62 | 45 | 0.0 | 1.0 | 0.00 | 0.00 | 0.00 | 82 | 1018.0 |
| 20260504045704 | 62 | 45 | 0.0 | 1.0 | 0.00 | 0.00 | 0.00 | 80 | 1018.1 |
| 20260504045200 | 62 | 45 | 0.0 | 1.0 | 0.00 | 0.00 | 0.00 | 80 | 1018.1 |
| 20260504044702 | 63 | 45 | 0.0 | 2.0 | 0.00 | 0.00 | 0.00 | 79 | 1018.2 |
| 20260504044200 | 63 | 45 | 0.0 | 2.0 | 0.00 | 0.00 | 0.00 | 79 | 1018.2 |
| 20260504043659 | 63 | 45 | 0.0 | 1.0 | 0.00 | 0.00 | 0.00 | 78 | 1018.2 |
| 20260504043200 | 63 | 45 | 0.0 | 1.0 | 0.00 | 0.00 | 0.00 | 78 | 1018.2 |
| 20260504042658 | 63 | 45 | 0.0 | 2.0 | 0.00 | 0.00 | 0.00 | 77 | 1018.3 |
| 20260504042158 | 64 | 45 | 1.0 | 3.0 | 0.00 | 0.00 | 0.00 | 77 | 1018.3 |
| 20260504041923 | 64 | 45 | 1.0 | 3.0 | 0.00 | 0.00 | 0.00 | 77 | 1018.2 |
| 20260504041201 | 64 | 45 | 1.0 | 2.0 | 0.00 | 0.00 | 0.00 | 76 | 1018.2 |
| 20260504040658 | 64 | 45 | 0.0 | 3.0 | 0.00 | 0.00 | 0.00 | 76 | 1018.2 |
| 20260504040522 | 64 | 45 | 1.0 | 4.0 | 0.00 | 0.00 | 0.00 | 75 | 1018.2 |
| 20260504040429 | 64 | 45 | 1.0 | 4.0 | 0.00 | 0.00 | 0.00 | 75 | 1018.2 |
| 20260504035157 | 64 | 45 | 0.0 | 2.0 | 0.00 | 0.00 | 0.00 | 75 | 1018.4 |
| 20260504034654 | 63 | 45 | 0.0 | 2.0 | 0.00 | 0.00 | 0.00 | 78 | 1018.5 |
| 20260504034155 | 63 | 45 | 0.0 | 1.0 | 0.00 | 0.00 | 0.00 | 79 | 1018.6 |
| 20260504033910 | 62 | 45 | 0.0 | 1.0 | 0.00 | 0.00 | 0.00 | 81 | 1018.6 |
| 20260504033148 | 62 | 45 | 0.0 | 1.0 | 0.00 | 0.00 | 0.00 | 83 | 1018.7 |
| 20260504032648 | 62 | 45 | 0.0 | 0.0 | 0.00 | 0.00 | 0.00 | 83 | 1018.5 |
| 20260504032148 | 62 | 45 | 0.0 | 0.0 | 0.00 | 0.00 | 0.00 | 82 | 1018.4 |
| 20260504031649 | 62 | 45 | 0.0 | 0.0 | 0.00 | 0.00 | 0.00 | 82 | 1018.5 |
| 20260504031148 | 63 | 45 | 0.0 | 0.0 | 0.00 | 0.00 | 0.00 | 79 | 1018.4 |
| 20260504030649 | 63 | 45 | 0.0 | 0.0 | 0.00 | 0.00 | 0.00 | 79 | 1018.5 |
| 20260504030151 | 63 | 45 | 0.0 | 0.0 | 0.00 | 0.00 | 0.00 | 79 | 1018.5 |
| 20260504025649 | 64 | 45 | 0.0 | 0.0 | 0.00 | 0.00 | 0.00 | 81 | 1018.4 |
| 20260504025150 | 64 | 45 | 0.0 | 0.0 | 0.00 | 0.00 | 0.00 | 81 | 1018.4 |
| 20260504024645 | 64 | 45 | 0.0 | 0.0 | 0.00 | 0.00 | 0.00 | 80 | 1018.4 |
| 20260504024145 | 64 | 45 | 0.0 | 0.0 | 0.00 | 0.00 | 0.00 | 79 | 1018.3 |
| 20260504023645 | 64 | 45 | 0.0 | 0.0 | 0.00 | 0.00 | 0.00 | 79 | 1018.3 |
| 20260504023144 | 64 | 45 | 0.0 | 0.0 | 0.00 | 0.00 | 0.00 | 78 | 1018.3 |
| 20260504022644 | 65 | 45 | 0.0 | 0.0 | 0.00 | 0.00 | 0.00 | 80 | 1018.2 |
| 20260504022144 | 65 | 45 | 0.0 | 0.0 | 0.00 | 0.00 | 0.00 | 78 | 1018.1 |
| 20260504021645 | 65 | 45 | 0.0 | 0.0 | 0.00 | 0.00 | 0.00 | 79 | 1018.2 |
| 20260504021145 | 65 | 45 | 0.0 | 0.0 | 0.00 | 0.00 | 0.00 | 78 | 1018.1 |
| 20260504020646 | 66 | 45 | 0.0 | 0.0 | 0.00 | 0.00 | 0.00 | 76 | 1018.0 |
| 20260504020413 | 66 | 45 | 0.0 | 0.0 | 0.00 | 0.00 | 0.00 | 75 | 1017.9 |
| 20260504015647 | 66 | 45 | 0.0 | 0.0 | 0.00 | 0.00 | 0.00 | 74 | 1017.8 |
| 20260504015147 | 66 | 45 | 0.0 | 0.0 | 0.00 | 0.00 | 0.00 | 75 | 1017.8 |
| 20260504014644 | 66 | 45 | 0.0 | 0.0 | 0.00 | 0.00 | 0.00 | 76 | 1017.8 |
| 20260504014143 | 67 | 45 | 0.0 | 0.0 | 0.00 | 0.00 | 0.00 | 77 | 1017.6 |
| 20260504013643 | 67 | 45 | 0.0 | 0.0 | 0.00 | 0.00 | 0.00 | 77 | 1017.6 |
| 20260504013142 | 67 | 45 | 0.0 | 0.0 | 0.00 | 0.00 | 0.00 | 76 | 1017.6 |
| 20260504012642 | 67 | 45 | 0.0 | 0.0 | 0.00 | 0.00 | 0.00 | 74 | 1017.6 |
| 20260504012631 | 67 | 45 | 0.0 | 0.0 | 0.00 | 0.00 | 0.00 | 73 | 1017.5 |
| 20260504011644 | 67 | 45 | 0.0 | 0.0 | 0.00 | 0.00 | 0.00 | 69 | 1017.5 |
| 20260504011140 | 68 | 45 | 0.0 | 0.0 | 0.00 | 0.00 | 0.00 | 68 | 1017.5 |
| 20260504010644 | 69 | 45 | 0.0 | 0.0 | 0.00 | 0.00 | 0.00 | 67 | 1017.4 |
| 20260504010138 | 69 | 45 | 0.0 | 0.0 | 0.00 | 0.00 | 0.00 | 67 | 1017.5 |
| 20260504005630 | 70 | 45 | 0.0 | 0.0 | 0.00 | 0.00 | 0.00 | 65 | 1017.4 |
| 20260504005128 | 70 | 45 | 0.0 | 0.0 | 0.00 | 0.00 | 0.00 | 62 | 1017.4 |
| 20260504004627 | 71 | 45 | 0.0 | 0.0 | 0.00 | 0.00 | 0.00 | 60 | 1017.4 |
| 20260504004127 | 71 | 45 | 0.0 | 0.0 | 0.00 | 0.00 | 0.00 | 57 | 1017.4 |
| 20260504003626 | 72 | 45 | 0.0 | 0.0 | 0.00 | 0.00 | 0.00 | 55 | 1017.3 |
| 20260504003128 | 72 | 45 | 0.0 | 0.0 | 0.00 | 0.00 | 0.00 | 53 | 1017.3 |
| 20260504002625 | 73 | 45 | 0.0 | 0.0 | 0.00 | 0.00 | 0.00 | 52 | 1017.3 |
| 20260504002122 | 73 | 45 | 0.0 | 0.0 | 0.00 | 0.00 | 0.00 | 52 | 1017.3 |
| 20260504001620 | 74 | 45 | 0.0 | 1.0 | 0.00 | 0.00 | 0.00 | 50 | 1017.3 |
| 20260504001344 | 74 | 45 | 0.0 | 2.0 | 0.00 | 0.00 | 0.00 | 49 | 1017.3 |
| 20260504000620 | 74 | 45 | 0.0 | 2.0 | 0.00 | 0.00 | 0.00 | 48 | 1017.4 |
| 20260504000120 | 74 | 45 | 0.0 | 2.0 | 0.00 | 0.00 | 0.00 | 49 | 1017.3 |
| 20260503235841 | 75 | 45 | 1.0 | 2.0 | 0.00 | 0.00 | 0.00 | 48 | 1017.4 |
| 20260503235116 | 75 | 45 | 1.0 | 3.0 | 0.00 | 0.00 | 0.00 | 46 | 1017.4 |
| 20260503235108 | 75 | 45 | 1.0 | 3.0 | 0.00 | 0.00 | 0.00 | 47 | 1017.4 |
| 20260503234117 | 75 | 45 | 1.0 | 3.0 | 0.00 | 0.00 | 0.00 | 45 | 1017.4 |
| 20260503233616 | 75 | 45 | 1.0 | 3.0 | 0.00 | 0.00 | 0.00 | 45 | 1017.4 |
| 20260503233117 | 75 | 45 | 1.0 | 4.0 | 0.00 | 0.00 | 0.00 | 46 | 1017.5 |
| 20260503232611 | 75 | 45 | 1.0 | 4.0 | 0.00 | 0.00 | 0.00 | 46 | 1017.5 |
| 20260503232104 | 75 | 45 | 1.0 | 4.0 | 0.00 | 0.00 | 0.00 | 46 | 1017.5 |
| 20260503231559 | 76 | 45 | 1.0 | 4.0 | 0.00 | 0.00 | 0.00 | 44 | 1017.5 |
| 20260503231317 | 76 | 45 | 1.0 | 4.0 | 0.00 | 0.00 | 0.00 | 44 | 1017.5 |
| 20260503230546 | 76 | 45 | 1.0 | 5.0 | 0.00 | 0.00 | 0.00 | 45 | 1017.5 |
| 20260503230040 | 77 | 45 | 1.0 | 5.0 | 0.00 | 0.00 | 0.00 | 46 | 1017.4 |
| 20260503225535 | 77 | 45 | 1.0 | 4.0 | 0.00 | 0.00 | 0.00 | 44 | 1017.4 |
| 20260503225029 | 77 | 45 | 1.0 | 4.0 | 0.00 | 0.00 | 0.00 | 42 | 1017.4 |
| 20260503224523 | 77 | 45 | 1.0 | 4.0 | 0.00 | 0.00 | 0.00 | 42 | 1017.5 |
| 20260503224017 | 78 | 45 | 1.0 | 4.0 | 0.00 | 0.00 | 0.00 | 43 | 1017.4 |
| 20260503223511 | 78 | 44 | 1.0 | 4.0 | 0.00 | 0.00 | 0.00 | 44 | 1017.4 |
| 20260503223005 | 78 | 44 | 2.0 | 6.0 | 0.00 | 0.00 | 0.00 | 43 | 1017.7 |
| 20260503222459 | 77 | 44 | 2.0 | 6.0 | 0.00 | 0.00 | 0.00 | 44 | 1017.7 |
| 20260503221948 | 77 | 45 | 2.0 | 4.0 | 0.00 | 0.00 | 0.00 | 42 | 1017.8 |
| 20260503221443 | 78 | 44 | 2.0 | 4.0 | 0.00 | 0.00 | 0.00 | 43 | 1017.9 |
| 20260503221426 | 78 | 44 | 2.0 | 5.0 | 0.00 | 0.00 | 0.00 | 41 | 1018.0 |
| 20260503220431 | 78 | 44 | 2.0 | 7.0 | 0.00 | 0.00 | 0.00 | 43 | 1018.1 |
| 20260503215925 | 77 | 44 | 2.0 | 7.0 | 0.00 | 0.00 | 0.00 | 42 | 1018.0 |
| 20260503215636 | 77 | 44 | 2.0 | 6.0 | 0.00 | 0.00 | 0.00 | 40 | 1018.1 |
| 20260503214913 | 77 | 44 | 2.0 | 5.0 | 0.00 | 0.00 | 0.00 | 41 | 1018.1 |
| 20260503214407 | 78 | 44 | 2.0 | 7.0 | 0.00 | 0.00 | 0.00 | 41 | 1018.3 |
| 20260503213900 | 78 | 44 | 2.0 | 7.0 | 0.00 | 0.00 | 0.00 | 42 | 1018.1 |
| 20260503213355 | 78 | 44 | 2.0 | 6.0 | 0.00 | 0.00 | 0.00 | 43 | 1018.1 |
| 20260503212849 | 78 | 44 | 2.0 | 6.0 | 0.00 | 0.00 | 0.00 | 42 | 1018.2 |
| 20260503212343 | 78 | 44 | 1.0 | 4.0 | 0.00 | 0.00 | 0.00 | 43 | 1018.2 |
| 20260503211836 | 78 | 44 | 1.0 | 5.0 | 0.00 | 0.00 | 0.00 | 41 | 1018.2 |
| 20260503211331 | 78 | 45 | 1.0 | 5.0 | 0.00 | 0.00 | 0.00 | 42 | 1018.3 |
| 20260503210825 | 78 | 44 | 1.0 | 4.0 | 0.00 | 0.00 | 0.00 | 44 | 1018.3 |
| 20260503210318 | 78 | 44 | 2.0 | 6.0 | 0.00 | 0.00 | 0.00 | 42 | 1018.4 |
| 20260503205812 | 77 | 45 | 1.0 | 6.0 | 0.00 | 0.00 | 0.00 | 46 | 1018.4 |
| 20260503205528 | 77 | 45 | 1.0 | 6.0 | 0.00 | 0.00 | 0.00 | 46 | 1018.5 |
| 20260503204801 | 77 | 45 | 2.0 | 6.0 | 0.00 | 0.00 | 0.00 | 44 | 1018.7 |
| 20260503204255 | 77 | 44 | 2.0 | 6.0 | 0.00 | 0.00 | 0.00 | 41 | 1018.8 |
| 20260503203749 | 77 | 45 | 1.0 | 6.0 | 0.00 | 0.00 | 0.00 | 44 | 1019.0 |
| 20260503203243 | 77 | 45 | 2.0 | 6.0 | 0.00 | 0.00 | 0.00 | 41 | 1019.0 |
| 20260503202736 | 77 | 45 | 3.0 | 8.0 | 0.00 | 0.00 | 0.00 | 39 | 1019.1 |
| 20260503202231 | 77 | 44 | 2.0 | 8.0 | 0.00 | 0.00 | 0.00 | 44 | 1019.3 |
| 20260503201725 | 77 | 44 | 2.0 | 7.0 | 0.00 | 0.00 | 0.00 | 45 | 1019.3 |
| 20260503201219 | 77 | 44 | 2.0 | 7.0 | 0.00 | 0.00 | 0.00 | 45 | 1019.3 |
| 20260503200712 | 77 | 99 | 2.0 | 7.0 | 0.00 | 0.00 | 0.00 | 43 | 1019.4 |
| 20260503200207 | 78 | 136 | 1.0 | 7.0 | 0.00 | 0.00 | 0.00 | 39 | 1019.6 |
| 20260503195701 | 78 | 132 | 1.0 | 4.0 | 0.00 | 0.00 | 0.00 | 41 | 1019.8 |
| 20260503195155 | 78 | 49 | 2.0 | 6.0 | 0.00 | 0.00 | 0.00 | 44 | 1020.0 |
| 20260503194916 | 77 | 49 | 2.0 | 7.0 | 0.00 | 0.00 | 0.00 | 42 | 1020.0 |
| 20260503194415 | 77 | 49 | 2.0 | 7.0 | 0.00 | 0.00 | 0.00 | 43 | 1020.1 |
| 20260503193654 | 77 | 119 | 2.0 | 6.0 | 0.00 | 0.00 | 0.00 | 42 | 1020.0 |
| 20260503193153 | 77 | 90 | 3.0 | 6.0 | 0.00 | 0.00 | 0.00 | 39 | 1020.2 |
| 20260503192653 | 78 | 49 | 2.0 | 6.0 | 0.00 | 0.00 | 0.00 | 41 | 1020.1 |
| 20260503192153 | 78 | 124 | 1.0 | 6.0 | 0.00 | 0.00 | 0.00 | 41 | 1020.2 |
| 20260503191654 | 78 | 105 | 1.0 | 4.0 | 0.00 | 0.00 | 0.00 | 40 | 1020.4 |
| 20260503191153 | 78 | 132 | 1.0 | 5.0 | 0.00 | 0.00 | 0.00 | 41 | 1020.6 |
| 20260503190654 | 78 | 155 | 1.0 | 5.0 | 0.00 | 0.00 | 0.00 | 42 | 1020.7 |
| 20260503190154 | 78 | 94 | 2.0 | 7.0 | 0.00 | 0.00 | 0.00 | 45 | 1020.6 |
| 20260503185656 | 78 | 130 | 2.0 | 7.0 | 0.00 | 0.00 | 0.00 | 42 | 1020.7 |
| 20260503185158 | 79 | 90 | 1.0 | 6.0 | 0.00 | 0.00 | 0.00 | 40 | 1020.6 |